Flag Weather past 2 weeks in Swansea, Wales, United Kingdom

Now
60 °F

Cool.


Feels Like: 57 °F
Forecast: N/A
Wind: 16 mph from Southeast

Location: Mumbles

Current Time: Oct 30, 2014 at 2:43:52 PM

Latest Report: Oct 30, 2014 at 2:00 PM


Visibility: N/A

Pressure: 30.01 "Hg

Humidity: 92%

Dew point: 57 °F

Location of SwanseaLocation

Historic Weather in Swansea — Graph

°F

Swansea temperature yesterday

Maximum temperature yesterday: 56 °F (at 11:00 PM)
Minimum temperature yesterday: 52 °F (at 9:00 AM)
Average temperature yesterday: 54 °F

Past Weeks' High & Low Weather Summary

 TemperatureHumidityPressure
High63 °F (Oct 18, 3:00 PM)97% (Oct 23, 2:00 PM)30.36 "Hg (Oct 23, 2:00 PM)
Low49 °F (Oct 21, 11:00 PM)52% (Oct 21, 3:00 PM)29.47 "Hg (Oct 15, 3:00 PM)
Average58 °F85%29.93 "Hg
* Reported Oct 15 2:00 PM — Oct 30 1:00 PM, Swansea, Weather by CustomWeather, © 2014

Note: Actual official high and low records may vary slightly from our data, if they occured in-between our weather recording intervals... More about our weather records

Advertising

Swansea weather history for previous 24 hours

 ConditionsComfort  
Time TempWeatherWind HumidityBarometerVisibility
1:00 PM
Oct 30
60 °FCool.15 mph90%30.02 "HgN/A
12:00 PM60 °FCool.12 mph92%30.02 "HgN/A
11:00 AM60 °FCool.12 mph93%30.03 "HgN/A
10:00 AM59 °FCool.12 mph96%30.02 "HgN/A
9:00 AM59 °FCool.15 mph95%30.01 "HgN/A
8:00 AM59 °FCool.10 mph96%30.00 "HgN/A
7:00 AM59 °FCool.12 mph97%29.99 "HgN/A
6:00 AM59 °FCool.16 mph97%29.98 "HgN/A
5:00 AM58 °FCool.17 mph97%29.97 "HgN/A
4:00 AM59 °FCool.14 mph96%29.97 "HgN/A
2:00 AM57 °FCool.21 mph95%29.98 "HgN/A
1:00 AM57 °FCool.18 mph96%29.98 "HgN/A
12:00 AM56 °FCool.23 mph97%29.98 "HgN/A
11:00 PM
Oct 29
56 °FCool.21 mph96%29.98 "HgN/A
10:00 PM56 °FCool.22 mph95%29.99 "HgN/A
9:00 PM55 °FCool.17 mph95%30.00 "HgN/A
8:00 PM54 °FCool.16 mph95%30.00 "HgN/A
7:00 PM54 °FCool.16 mph95%30.01 "HgN/A
6:00 PM54 °FCool.18 mph92%30.01 "HgN/A
5:00 PM53 °FCool.16 mph93%29.99 "HgN/A
4:00 PM53 °FCool.15 mph92%29.99 "HgN/A
3:00 PM53 °FCool.16 mph88%29.99 "HgN/A
2:00 PM54 °FCool.17 mph89%30.00 "HgN/A
Weather by CustomWeather, © 2014

See weather overviewHow to use our weather pages